SBIRS GEO-1 (USA 230)

Last updated on Fri Jul 11 2025 00:02:43 GMT+0000 (Coordinated Universal Time)

1 37481U 11019A 25191.21504624 .00000110 00000+0 00000+0 0 9997 2 37481 3.7899 52.4312 0001871 48.6752 316.4884 1.00272741 51977
UTC large
Height (km)
Speed (km/s)
/
Latitude / Longitude
Inclination (degrees)
Orbital Period (minutes)
Azimuth
Elevation
Range (km)
Doppler Factor

Next 0 passes for location: London (51.5072 / 0.1276)

Sorry there are no passes over London.